Weather History for Sedalia, MO

Change the Weather History Date:

Saturday, September 21, 2013

  Actual Average Record
Temperature  
Mean Temperature 62 °F 67 °F  
Max Temperature 75 °F 77 °F 95 °F (1937)
Min Temperature 49 °F 56 °F 36 °F (1983)
Degree Days  
Heating Degree Days 3 2  
Month to date heating degree days 8 14  
Since 1 July heating degree days 8 15  
Cooling Degree Days 0 4  
Month to date cooling degree days 196 137  
Year to date cooling degree days 1411 1422  
Growing Degree Days 12 (Base 50)    
Moisture  
Dew Point 48 °F    
Average Humidity 65    
Maximum Humidity 96    
Minimum Humidity 33    
Precipitation  
Precipitation 0.00 in 0.13 in 2.90 in (1947)
Month to date precipitation 2.79 3.00  
Year to date precipitation 32.70 30.94  
Sea Level Pressure  
Sea Level Pressure 29.98 in    
Wind  
Wind Speed 4 mph (NNW)    
Max Wind Speed 13 mph    
Max Gust Speed 18 mph    
Visibility 10 miles    
Events      
T = Trace of Precipitation, MM = Missing Value Source: NWS Daily Summary

Daily Weather History Graph

Daily Weather History Graph

Search for Another Location

Airport:

Trip Planner

Search our weather history database for the weather conditions in past years. The results will help you decide how hot, cold, wet, or windy it might be!

Date:

Astronomy

Sep. 21, 2013 Rise Set
Actual Time 6:59 AM CDT 7:10 PM CDT
Civil Twilight 6:33 AM CDT 7:37 PM CDT
Nautical Twilight 6:02 AM CDT 8:08 PM CDT
Astronomical Twilight 5:30 AM CDT 8:39 PM CDT
Moon 8:24 PM CDT (9/21) 9:16 AM CDT (9/21)
Length of Visible Light 13h 04m
Length of Day
12h 11m
Waning Gibbous, 94% of the Moon is Illuminated
Sep 21
Waning Gibbous
Sep 26
Last Quarter
Oct 4
New
Oct 11
First Quarter
Oct 18
Full

Hourly Weather History & Observations

Time (CDT) Temp. Dew Point Humidity Pressure Visibility Wind Dir Wind Speed Gust Speed Precip Events Conditions
12:53 AM 55.0 °F 52.0 °F 89% 29.98 in 10.0 mi WNW 4.6 mph - N/A   Clear
1:53 AM 54.0 °F 51.1 °F 90% 29.98 in 10.0 mi WNW 4.6 mph - N/A   Clear
2:53 AM 53.1 °F 50.0 °F 89% 29.97 in 10.0 mi WNW 3.5 mph - N/A   Clear
3:53 AM 54.0 °F 50.0 °F 86% 29.97 in 10.0 mi NW 5.8 mph - N/A   Clear
4:53 AM 52.0 °F 48.9 °F 89% 29.99 in 10.0 mi NW 6.9 mph - N/A   Clear
5:53 AM 51.1 °F 48.0 °F 89% 29.99 in 10.0 mi NNW 4.6 mph - N/A   Clear
6:53 AM 50.0 °F 48.0 °F 93% 30.01 in 10.0 mi NW 4.6 mph - N/A   Clear
7:53 AM 52.0 °F 50.0 °F 93% 30.03 in 10.0 mi NW 4.6 mph - 0.01 in   Clear
8:53 AM 57.9 °F 50.0 °F 75% 30.04 in 10.0 mi North 8.1 mph - N/A   Clear
9:53 AM 63.0 °F 48.9 °F 60% 30.05 in 10.0 mi NNE 6.9 mph - N/A   Clear
10:53 AM 66.0 °F 46.9 °F 50% 30.05 in 10.0 mi NNE 8.1 mph - N/A   Clear
11:53 AM 69.1 °F 46.0 °F 44% 30.03 in 10.0 mi NNE 12.7 mph - N/A   Clear
12:53 PM 72.0 °F 46.9 °F 41% 30.02 in 10.0 mi NNW 6.9 mph - N/A   Clear
1:53 PM 73.0 °F 45.0 °F 37% 29.99 in 10.0 mi North 5.8 mph - N/A   Clear
2:53 PM 73.9 °F 45.0 °F 35% 29.98 in 10.0 mi North 5.8 mph - N/A   Clear
3:53 PM 75.0 °F 44.1 °F 33% 29.96 in 10.0 mi North 4.6 mph - N/A   Clear
4:53 PM 75.0 °F 45.0 °F 34% 29.95 in 10.0 mi North 8.1 mph - N/A   Clear
5:53 PM 73.0 °F 46.0 °F 38% 29.94 in 10.0 mi NW 4.6 mph - N/A   Clear
6:53 PM 69.1 °F 48.9 °F 49% 29.94 in 10.0 mi Calm Calm - N/A   Clear
7:53 PM 59.0 °F 52.0 °F 78% 29.94 in 10.0 mi Calm Calm - N/A   Clear
8:53 PM 62.1 °F 48.9 °F 62% 29.95 in 10.0 mi Calm Calm - N/A   Clear
9:53 PM 61.0 °F 48.9 °F 64% 29.96 in 10.0 mi Calm Calm - N/A   Clear
10:53 PM 55.9 °F 50.0 °F 80% 29.96 in 10.0 mi Calm Calm - N/A   Clear
11:53 PM 55.9 °F 48.9 °F 77% 29.96 in 10.0 mi Calm Calm - N/A   Clear